TimeEEST,TemperatureF,Dew PointF,Humidity,Sea Level PressureIn,VisibilityMPH,Wind Direction,Wind SpeedMPH,Gust SpeedMPH,PrecipitationIn,Events,Conditions,WindDirDegrees,DateUTC
12:20 AM,78.8,69.8,74,29.68,-9999.0,NNE,5.8,-,N/A,,Clear,30,2013-08-01 21:20:00
12:50 AM,78.8,69.8,74,29.68,-9999.0,Variable,2.3,-,N/A,,Clear,0,2013-08-01 21:50:00
1:20 AM,78.8,69.8,74,29.68,-9999.0,Calm,Calm,-,N/A,,Clear,0,2013-08-01 22:20:00
1:50 AM,77.0,69.8,78,29.65,-9999.0,East,5.8,-,N/A,,Clear,100,2013-08-01 22:50:00
2:20 AM,75.2,69.8,83,29.65,-9999.0,East,4.6,-,N/A,,Clear,90,2013-08-01 23:20:00
2:50 AM,75.2,69.8,83,29.65,-9999.0,East,4.6,-,N/A,,Clear,90,2013-08-01 23:50:00
3:00 AM,75,69,77,29.67,6,East,4.6,,,,,90,2013-08-02 00:00:00
3:20 AM,75.2,68.0,78,29.65,-9999.0,East,5.8,-,N/A,,Clear,80,2013-08-02 00:20:00
3:50 AM,78.8,71.6,78,29.65,-9999.0,East,8.1,-,N/A,,Clear,90,2013-08-02 00:50:00
4:20 AM,78.8,71.6,78,29.65,-9999.0,ESE,4.6,-,N/A,,Clear,120,2013-08-02 01:20:00
4:50 AM,78.8,71.6,78,29.68,-9999.0,ESE,5.8,-,N/A,,Clear,110,2013-08-02 01:50:00
5:20 AM,80.6,73.4,79,29.68,-9999.0,ESE,6.9,-,N/A,,Clear,120,2013-08-02 02:20:00
5:50 AM,80.6,73.4,79,29.68,-9999.0,ESE,6.9,-,N/A,,Clear,120,2013-08-02 02:50:00
6:20 AM,78.8,73.4,83,29.68,-9999.0,East,4.6,-,N/A,,Clear,100,2013-08-02 03:20:00
6:50 AM,78.8,73.4,83,29.68,-9999.0,SE,3.5,-,N/A,,Clear,140,2013-08-02 03:50:00
7:20 AM,80.6,75.2,84,29.71,-9999.0,NNE,2.3,-,N/A,,Clear,30,2013-08-02 04:20:00
7:50 AM,82.4,75.2,79,29.71,-9999.0,NE,2.3,-,N/A,,Clear,50,2013-08-02 04:50:00
8:20 AM,86.0,73.4,66,29.71,-9999.0,Calm,Calm,-,N/A,,Clear,0,2013-08-02 05:20:00
8:50 AM,87.8,69.8,55,29.71,-9999.0,NW,1.2,-,N/A,,Clear,310,2013-08-02 05:50:00
9:20 AM,89.6,64.4,43,29.71,-9999.0,Variable,1.2,-,N/A,,Clear,0,2013-08-02 06:20:00
9:50 AM,87.8,73.4,62,29.71,-9999.0,SSW,8.1,-,N/A,,Clear,200,2013-08-02 06:50:00
10:20 AM,87.8,73.4,62,29.74,-9999.0,SSW,9.2,-,N/A,,Clear,200,2013-08-02 07:20:00
10:50 AM,89.6,73.4,59,29.74,-9999.0,SSW,11.5,-,N/A,,Clear,200,2013-08-02 07:50:00
11:20 AM,89.6,69.8,52,29.74,-9999.0,SSW,11.5,-,N/A,,Clear,200,2013-08-02 08:20:00
11:50 AM,89.6,69.8,52,29.74,6.2,SSW,10.4,-,N/A,,Partly Cloudy,200,2013-08-02 08:50:00
12:20 PM,89.6,71.6,55,29.74,6.2,SSW,11.5,-,N/A,,Partly Cloudy,200,2013-08-02 09:20:00
12:50 PM,91.4,68.0,46,29.74,6.2,SSW,11.5,-,N/A,,Partly Cloudy,210,2013-08-02 09:50:00
1:20 PM,89.6,73.4,59,29.74,6.2,SW,12.7,-,N/A,,Partly Cloudy,220,2013-08-02 10:20:00
1:50 PM,89.6,75.2,62,29.74,6.2,WSW,11.5,-,N/A,,Partly Cloudy,240,2013-08-02 10:50:00
2:20 PM,89.6,75.2,62,29.74,6.2,WSW,11.5,-,N/A,,Partly Cloudy,240,2013-08-02 11:20:00
2:50 PM,89.6,73.4,59,29.74,6.2,SW,9.2,-,N/A,,Partly Cloudy,230,2013-08-02 11:50:00
3:00 PM,89,70,44,29.76,6,SW,9.2,,,,Scattered Clouds,230,2013-08-02 12:00:00
3:20 PM,89.6,71.6,55,29.74,6.2,SW,9.2,-,N/A,,Partly Cloudy,220,2013-08-02 12:20:00
3:50 PM,89.6,71.6,55,29.74,6.2,SSW,9.2,-,N/A,,Partly Cloudy,210,2013-08-02 12:50:00
4:20 PM,87.8,73.4,62,29.74,6.2,SSW,9.2,-,N/A,,Partly Cloudy,210,2013-08-02 13:20:00
4:50 PM,87.8,71.6,58,29.74,6.2,SW,9.2,-,N/A,,Partly Cloudy,220,2013-08-02 13:50:00
5:20 PM,87.8,73.4,62,29.74,6.2,SSW,9.2,-,N/A,,Partly Cloudy,210,2013-08-02 14:20:00
5:50 PM,87.8,73.4,62,29.74,6.2,SW,9.2,-,N/A,,Partly Cloudy,220,2013-08-02 14:50:00
6:20 PM,87.8,71.6,58,29.74,6.2,SW,6.9,-,N/A,,Partly Cloudy,220,2013-08-02 15:20:00
6:50 PM,86.0,71.6,62,29.74,6.2,SW,8.1,-,N/A,,Partly Cloudy,220,2013-08-02 15:50:00
7:20 PM,84.2,75.2,74,29.74,6.2,WSW,9.2,-,N/A,,Partly Cloudy,240,2013-08-02 16:20:00
7:50 PM,84.2,75.2,74,29.74,-9999.0,SW,8.1,-,N/A,,Clear,230,2013-08-02 16:50:00
8:20 PM,84.2,75.2,74,29.77,-9999.0,WSW,5.8,-,N/A,,Clear,240,2013-08-02 17:20:00
8:50 PM,82.4,75.2,79,29.77,-9999.0,SW,3.5,-,N/A,,Clear,220,2013-08-02 17:50:00
9:00 PM,82,74,72,29.78,6,SW,3.5,,,,,220,2013-08-02 18:00:00
9:20 PM,80.6,73.4,79,29.77,-9999.0,Calm,Calm,-,N/A,,Clear,0,2013-08-02 18:20:00
9:50 PM,80.6,75.2,84,29.77,-9999.0,Variable,1.2,-,N/A,,Clear,0,2013-08-02 18:50:00
10:20 PM,80.6,75.2,84,29.77,-9999.0,SSW,4.6,-,N/A,,Clear,200,2013-08-02 19:20:00
10:50 PM,78.8,73.4,83,29.77,-9999.0,ENE,2.3,-,N/A,,Clear,60,2013-08-02 19:50:00
11:20 PM,77.0,71.6,83,29.77,-9999.0,ENE,4.6,-,N/A,,Clear,60,2013-08-02 20:20:00
11:50 PM,77.0,71.6,83,29.77,-9999.0,ENE,3.5,-,N/A,,Clear,60,2013-08-02 20:50:00